1363478434336,2.09314
1363478494336,2.09040
1363478554336,2.11108
1363478614336,2.07657
1363478674336,2.10345
1363478734336,2.11143
1363478794336,2.10448
1363478854336,2.10912
1363478914336,2.12740
1363478974336,2.10908
1363479034336,2.10165
1363479094336,2.10300
1363479154336,2.11980
1363479214336,2.09582
1363479274336,2.08990
1363479334336,2.11603
1363479394336,2.10060
1363479454336,2.09294
1363479514336,2.10994
1363479574336,2.08141
1363479634336,2.10826
1363479694336,2.09240
1363479754336,2.09219
1363479814336,2.11007
1363479874336,2.10331
1363479934336,2.10581
1363479994336,2.09128
1363480054336,2.08011
1363480114336,2.14417
1363480174336,2.09817
1363480234336,2.06330
1363480294336,2.08977
1363480354336,2.08010
1363480414336,2.08487
1363480474336,2.08343
1363480534336,2.07330
1363480594336,2.10425
1363480654336,2.09936
1363480714336,2.09722
1363480774336,2.11861
1363480834336,2.10424
1363480894336,2.08975
1363480954336,2.11891
1363481014336,2.08982
1363481074336,2.10452
1363481134336,2.10022
1363481194336,2.12362
1363481254336,2.10231
1363481314336,2.07275
1363481374336,2.09429
1363481434336,2.10984
1363481494336,2.11773
1363481554336,2.08910
1363481614336,2.11688
1363481674336,2.13155
1363481734336,2.10604
1363481794336,2.08025
1363481854336,2.08823
1363481914336,2.10264
1363481974336,2.09170
1363482034349,2.10300
1363482094349,2.12242
1363482154349,2.09733
1363482214349,2.11159
1363482274349,2.12174
1363482334349,2.10444
1363482394349,2.10149
1363482454349,2.10683
1363482514349,2.09993
1363482574349,2.12130
1363482634349,2.09177
1363482694349,2.09496
1363482754349,2.09302
1363482814349,2.08490
1363482874349,2.08892
1363482934349,2.10402
1363482994349,2.06487
1363483054349,2.09890
1363483114349,2.10071
1363483174349,2.08753
1363483234349,2.09672
1363483294349,2.06929
1363483354349,2.10925
1363483414349,2.09596
1363483474349,2.10797
1363483534349,2.10010
1363483594349,2.11048
1363483654349,2.09145
1363483714349,2.11695
1363483774349,2.11780
1363483834349,2.09911
1363483894349,2.08297
1363483954349,2.10307
1363484014349,2.11271
1363484074349,2.12077
1363484134349,2.08115
1363484194349,2.10811
1363484254349,2.09730
1363484314349,2.07580
1363484374349,2.08958
1363484434349,2.10185
1363484494349,2.09324
1363484554349,2.08911
1363484614349,2.10065
1363484674349,2.09876
1363484734349,2.09558
1363484794349,2.10141
1363484854349,2.12259
1363484914349,2.10582
1363484974349,2.11672
1363485034349,2.10561
1363485094349,2.10777
1363485154349,2.08337
1363485214349,2.11289
1363485274349,2.11064
1363485334349,2.08449
1363485394349,2.09948
1363485454349,2.11933
1363485514349,2.09009
1363485574349,2.10215
1363485634361,2.10120
1363485694361,2.11172
1363485754361,2.09045
1363485814361,2.08838
1363485874361,2.09103
1363485934361,2.11315
1363485994361,2.10724
1363486054361,2.09304
1363486114361,2.10797
1363486174361,2.09010
1363486234361,2.09339
1363486294361,2.08698
1363486354361,2.07341
1363486414361,2.09144
1363486474361,2.08130
1363486534361,2.11087
1363486594361,2.10031
1363486654361,2.09965
1363486714361,2.10088
1363486774361,2.08596
1363486834361,2.11232
1363486894361,2.10712
1363486954361,2.09295
1363487014361,2.13760
1363487074361,2.07082
1363487134361,2.09358
1363487194361,2.07560
1363487254361,2.07325
1363487314361,2.09192
1363487374361,2.10163
1363487434361,2.10976
1363487494361,2.08733
1363487554361,2.08804
1363487614361,2.09323
1363487674361,2.07102
1363487734361,2.06104
1363487794361,2.11292
1363487854361,2.10827
1363487914361,2.07778
1363487974361,2.10076
1363488034361,2.08319
1363488094361,2.07880
1363488154361,2.09166
1363488214361,2.08879
1363488274361,2.08015
1363488334361,2.09372
1363488394361,2.08631
1363488454361,2.09349
1363488514361,2.09332
1363488574361,2.10096
1363488634361,2.09711
1363488694361,2.09916
1363488754361,2.10691
1363488814361,2.08278
1363488874361,2.10873
1363488934361,2.10667
1363488994361,2.07124
1363489054361,2.11473
1363489114361,2.10187
1363489174361,2.08928
1363489234373,2.09327
1363489294373,2.12103
1363489354373,2.12378
1363489414373,2.07235
1363489474373,2.11337
1363489534373,2.10537
1363489594373,2.10493
1363489654373,2.08732
1363489714373,2.09623
1363489774373,2.09455
1363489834373,2.09936
1363489894373,2.11593
1363489954373,2.11373
1363490014373,2.10329
1363490074373,2.09918
1363490134373,2.07448
1363490194373,2.08993
1363490254373,2.12478
1363490314373,2.08500
1363490374373,2.09655
1363490434373,2.10984
1363490494373,2.07565
1363490554373,2.09411
1363490614373,2.09860
1363490674373,2.10269
1363490734373,2.08193
1363490794373,2.07014
1363490854373,2.07817
1363490914373,2.08110
1363490974373,2.09072
1363491034373,2.09348
1363491094373,2.09106
1363491154373,2.06863
1363491214373,2.09586
1363491274373,2.09101
1363491334373,2.07596
1363491394373,2.07602
1363491454373,2.10022
1363491514373,2.08291
1363491574373,2.08373
1363491634373,2.09263
1363491694373,2.07552
1363491754373,2.09523
1363491814373,2.08352
1363491874373,2.06311
1363491934373,2.09154
1363491994373,2.10320
1363492054373,2.09426
1363492114373,2.05784
1363492174373,2.07402
1363492234373,2.08848
1363492294373,2.08058
1363492354373,2.05424
1363492414373,2.07923
1363492474373,2.06974
1363492534373,2.06921
1363492594373,2.05127
1363492654373,2.06405
1363492714373,2.08521
1363492774373,2.09295
1363492834386,2.07347
1363492894386,2.07558
1363492954386,2.07049
1363493014386,2.08290
1363493074386,2.04910
1363493134386,2.07670
1363493194386,2.06741
1363493254386,2.06810
1363493314386,2.06817
1363493374386,2.04939
1363493434386,2.11085
1363493494386,2.06193
1363493554386,2.07157
1363493614386,2.08403
1363493674386,2.04138
1363493734386,2.07173
1363493794386,2.03673
1363493854386,2.08368
1363493914386,2.06563
1363493974386,2.07321
1363494034386,2.06754
1363494094386,2.07431
1363494154386,2.08638
1363494214386,2.07166
1363494274386,2.08347
1363494334386,2.07450
1363494394386,2.09231
1363494454386,2.08432
1363494514386,2.07055
1363494574386,2.09143
1363494634386,2.05582
1363494694386,2.06447
1363494754386,2.05314
1363494814386,2.06464
1363494874386,2.06433
1363494934386,2.06601
1363494994386,2.08013
1363495054386,2.07549
1363495114386,2.07640
1363495174386,2.08438
1363495234386,2.07419
1363495294386,2.07710
1363495354386,2.05981
1363495414386,2.06401
1363495474386,2.06288
1363495534386,2.05833
1363495594386,2.06884
1363495654386,2.07149
1363495714386,2.06724
1363495774386,2.04600
1363495834386,2.05906
1363495894386,2.08855
1363495954386,2.05583
1363496014386,2.04966
1363496074386,2.04092
1363496134386,2.07026
1363496194386,2.06148
1363496254386,2.05522
1363496314386,2.03286
1363496374386,2.04956
1363496434398,2.06028
1363496494398,2.07044
1363496554398,2.03938
1363496614398,2.03162
1363496674398,2.06565
1363496734398,2.04357
1363496794398,2.07099
1363496854398,2.07932
1363496914398,2.04752
1363496974398,2.03517
1363497034398,2.04988
1363497094398,2.05039
1363497154398,2.06099
1363497214398,2.05066
1363497274398,2.03132
1363497334398,2.02781
1363497394398,2.05339
1363497454398,2.03651
1363497514398,2.03430
1363497574398,2.05746
1363497634398,2.03415
1363497694398,2.04055
1363497754398,2.06036
1363497814398,2.04876
1363497874398,2.04480
1363497934398,2.05873
1363497994398,2.04960
1363498054398,2.02113
1363498114398,2.04062
1363498174398,2.05572
1363498234398,2.03749
1363498294398,2.05009
1363498354398,2.05773
1363498414398,2.03969
1363498474398,2.02733
1363498534398,2.05381
1363498594398,2.04085
1363498654398,2.04188
1363498714398,2.05958
1363498774398,2.05656
1363498834398,2.06116
1363498894398,2.03345
1363498954398,2.03640
1363499014398,2.04398
1363499074398,2.04324
1363499134398,2.05682
1363499194398,2.07106
1363499254398,2.05986
1363499314398,2.05166
1363499374398,2.04922
1363499434398,2.03413
1363499494398,2.06180
1363499554398,2.04037
1363499614398,2.02023
1363499674398,2.05245
1363499734398,2.05662
1363499794398,2.05297
1363499854398,2.03121
1363499914398,2.03401
1363499974398,2.04596
1363500034410,2.07109
1363500094410,2.02259
1363500154410,2.04051
1363500214410,2.05262
1363500274410,2.03903
1363500334410,2.06109
1363500394410,2.03620
1363500454410,2.04098
1363500514410,2.03716
1363500574410,2.07505
1363500634410,2.05922
1363500694410,2.07357
1363500754410,2.06240
1363500814410,2.06156
1363500874410,2.04526
1363500934410,2.02673
1363500994410,2.05895
1363501054410,2.03563
1363501114410,2.04645
1363501174410,1.84458
1363514314444,1.98821
1363514374444,2.01114
1363514434456,2.03061
1363514494456,2.02993
1363514554456,2.01796
1363514614456,2.01925
1363514674456,2.01893
1363514734456,2.01835
1363514794456,2.02626
1363514854456,2.02516
1363514914456,2.00894
1363514974456,2.04883
1363515034456,2.01199
1363515094456,2.04102
1363515154456,2.04967
1363515214456,2.03709
1363515274456,2.01689
1363515334456,2.02864
1363515394456,2.01548
1363515454456,2.03984
1363515514456,2.02881
1363515574456,2.00134
1363515634456,2.02294
1363515694456,2.02574
1363515754456,2.03653
1363515814456,2.03257
1363515874456,2.02858
1363515934456,2.04376
1363515994456,2.05150
1363516054456,2.01041
1363516114456,2.04227
1363516174456,2.03720
1363516234456,2.02381
1363516294456,2.01628
1363516354456,2.03790
1363516414456,2.03369
1363516474456,2.01600
1363516534456,2.02880
1363516594456,2.02600
1363516654456,2.00947
1363516714456,2.01942
1363516774456,2.03385
1363516834456,2.01873
1363516894456,2.03255
1363516954456,2.04048
1363517014456,2.01976
1363517074456,2.04940
1363517134456,2.04607
1363517194456,2.03257
1363517254456,2.03226
1363517314456,2.03101
1363517374456,2.02928
1363517434456,2.03907
1363517494456,2.02178
1363517554456,2.04067
1363517614456,2.03090
1363517674456,2.01333
1363517734456,2.03394
1363517794456,2.06063
1363517854456,2.04547
1363517914456,2.02899
1363517974456,2.02153
1363518034468,2.02124
1363518094468,2.00781
1363518154468,2.02008
1363518214468,2.02769
1363518274468,2.03075
1363518334468,2.02895
1363518394468,2.04351
1363518454468,2.01267
1363518514468,2.03375
1363518574468,2.08146
1363518634468,2.02711
1363518694468,2.02201
1363518754468,2.01556
1363518814468,2.01460
1363518874468,2.00605
1363518934468,2.01904
1363518994468,2.01322
1363519054468,2.04119
1363519114468,2.02004
1363519174468,2.01877
1363519234468,2.01579
1363519294468,2.00896
1363519354468,1.99094
1363519414468,2.02480
1363519474468,2.01886
1363519534468,2.01049
1363519594468,2.03498
1363519654468,2.02583
1363519714468,2.02869
1363519774468,2.01675
1363519834468,2.03349
1363519894468,2.02093
1363519954468,2.02857
1363520014468,2.00549
1363520074468,2.01418
1363520134468,2.03127
1363520194468,2.02419
1363520254468,2.03213
1363520314468,2.03788
1363520374468,2.04256
1363520434468,2.04031
1363520494468,2.05936
1363520554468,2.02332
1363520614468,2.05946
1363520674468,2.03928
1363520734468,2.04412
1363520794468,2.04791
1363520854468,2.02811
1363520914468,2.01490
1363520974468,2.01623
1363521034468,2.04123
1363521094468,2.03143
1363521154468,2.03884
1363521214468,2.02039
1363521274468,2.03247
1363521334468,2.04422
1363521394468,2.01211
1363521454468,2.02085
1363521514468,2.00507
1363521574468,2.03202
1363521634481,2.02650
1363521694481,2.01592
1363521754481,2.01419
1363521814481,2.00602
1363521874481,2.03420
1363521934481,2.03049
1363521994481,2.04367
1363522054481,2.03443
1363522114481,2.02705
1363522174481,2.04945
1363522234481,2.02261
1363522294481,2.03959
1363522354481,2.02867
1363522414481,2.01521
1363522474481,2.03318
1363522534481,2.02926
1363522594481,2.04520
1363522654481,2.02543
1363522714481,2.01392
1363522774481,2.02302
1363522834481,2.03062
1363522894481,2.04614
1363522954481,2.03380
1363523014481,2.05512
1363523074481,2.03857
1363523134481,2.04197
1363523194481,2.02923
1363523254481,2.04293
1363523314481,2.04125
1363523374481,2.03736
1363523434481,2.04202
1363523494481,2.05114
1363523554481,2.04739
1363523614481,2.03658
1363523674481,2.04656
1363523734481,2.06038
1363523794481,2.04909
1363523854481,2.04582
1363523914481,2.03545
1363523974481,2.03760
1363524034481,2.06828
1363524094481,2.05208
1363524154481,2.06201
1363524214481,2.04955
1363524274481,2.06403
1363524334481,2.06512
1363524394481,2.05888
1363524454481,2.05523
1363524514481,2.03738
1363524574481,2.07741
1363524634481,2.08500
1363524694481,2.05896
1363524754481,2.07491
1363524814481,2.05088
1363524874481,2.06163
1363524934481,2.05211
1363524994481,2.05874
1363525054481,2.06918
1363525114481,2.07310
1363525174481,2.03633
1363525234493,2.05708
1363525294493,2.08430
1363525354493,2.07691
1363525414493,2.08011
1363525474493,2.06511
1363525534493,2.06704
1363525594493,2.04318
1363525654493,2.06704
1363525714493,2.05426
1363525774493,2.07671
1363525834493,2.07511
1363525894493,2.07141
1363525954493,2.06305
1363526014493,2.05607
1363526074493,2.07684
1363526134493,2.04398
1363526194493,2.05975
1363526254493,2.03623
1363526314493,2.06665
1363526374493,2.04538
1363526434493,2.07232
1363526494493,2.06664
1363526554493,1.81930
1363526614493,2.03196
1363527754493,2.05893
1363527814493,1.93483
1363527874493,2.05462
1363527934493,2.06207
1363527994493,2.04258
1363528054493,2.05545
1363528114493,2.04805
1363528174493,2.06421
1363528234493,2.06057
1363528294493,2.04464
1363528354493,2.06322
1363528414493,2.04839
1363528474493,2.06334
1363528534493,2.05948
1363528594493,2.05648
1363528654493,2.05596
1363528714493,2.04749
1363528774493,2.05784
1363528834506,2.02323
1363528894506,2.07319
1363528954506,2.05463
1363529014506,2.06216
1363529074506,2.13723
1363529134506,2.06616
1363529194506,2.05122
1363529254506,2.07298
1363529314506,2.05266
1363529374506,2.03791
1363529434506,2.06637
1363529494506,2.07037
1363529554506,2.06303
1363529614506,2.07696
1363529674506,2.05534
1363529734506,2.05059
1363529794506,2.05205
1363529854506,2.07246
1363529914506,2.05787
1363529974506,2.06004
1363530034506,2.06296
1363530094506,2.04678
1363530154506,2.06439
1363530214506,2.06596
1363530274506,2.05977
1363530334506,2.04381
1363530394506,2.04172
1363530454506,2.05875
1363530514506,2.04713
1363530574506,2.07510
1363530634506,2.06257
1363530694506,2.04878
1363530754506,2.06065
1363530814506,2.06103
1363530874506,2.05690
1363530934506,2.05140
1363530994506,2.06548
1363531054506,2.06507
1363531114506,2.04365
1363531174506,2.04088
1363531234506,2.05438
1363531294506,2.06859
1363531354506,2.08333
1363531414506,2.05109
1363531474506,2.05339
1363531534506,2.07045
1363531594506,2.08149
1363531654506,2.09330
1363531714506,2.05156
1363531774506,2.07151
1363531834506,2.03632
1363531894506,2.05666
1363531954506,2.05939
1363532014506,2.05811
1363532074506,2.06019
1363532134506,2.05885
1363532194506,2.05595
1363532254506,2.09946
1363532314506,2.09618
1363532374506,2.05810
1363532434518,2.05884
1363532494518,2.05260
1363532554518,2.07227
1363532614518,2.04608
1363532674518,2.05137
1363532734518,2.03775
1363532794518,2.04270
1363532854518,2.14485
1363532914518,2.05553
1363532974518,2.05036
1363533034518,2.04328
1363533094518,2.07361
1363533154518,2.06903
1363533214518,2.02579
1363533274518,2.03959
1363533334518,2.04288
1363533394518,2.03532
1363533454518,2.01934
1363533514518,2.06513
1363533574518,2.05361
1363533634518,2.06448
1363533694518,2.05562
1363533754518,2.05557
1363533814518,2.06254
1363533874518,2.03296
1363533934518,2.07192
1363533994518,2.06502
1363534054518,2.03587
1363534114518,2.07514
1363534174518,2.05656
1363534234518,2.06502
1363534294518,2.07693
1363534354518,2.12177
1363534414518,2.05571
1363534474518,2.07185
1363534534518,2.06813
1363534594518,2.10128
1363534654518,2.07628
1363534714518,2.10014
1363534774518,2.07435
1363534834518,2.09348
1363534894518,2.06516
1363534954518,2.06375
1363535014518,2.08660
1363535074518,2.08375
1363535134518,2.07915
1363535194518,2.08109
1363535254518,2.07725
1363535314518,2.09194
1363535374518,2.07192
1363535434518,2.08229
1363535494518,2.07660
1363535554518,2.09573
1363535614518,2.08558
1363535674518,2.08582
1363535734518,2.07354
1363535794518,2.10216
1363535854518,2.07972
1363535914518,2.08449
1363535974518,2.11671
1363536034531,2.07707
1363536094531,2.09397
1363536154531,2.11078
1363536214531,2.08507
1363536274531,2.06918
1363536334531,2.09120
1363536394531,2.07990
1363536454531,2.07648
1363536514531,2.08790
1363536574531,2.08571
1363536634531,2.06623
1363536694531,2.08626
1363536754531,2.08146
1363536814531,2.09196
1363536874531,2.06478
1363536934531,2.08747
1363536994531,2.09098
1363537054531,2.05623
1363537114531,2.10143
1363537174531,2.05961
1363537234531,2.07288
1363537294531,2.08983
1363537354531,2.08338
1363537414531,2.08253
1363537474531,2.13519
1363537534531,2.08830
1363537594531,2.09437
1363537654531,2.08277
1363537714531,2.09001
1363537774531,2.10035
1363537834531,2.05484
1363537894531,2.08112
1363537954531,2.12745
1363538014531,2.08338
1363538074531,2.08185
1363538134531,2.09350
1363538194531,1.92416
1363538254531,2.08537
1363538314531,2.05778
1363538374531,2.09149
1363538434531,2.09118
1363538494531,2.11257
1363538554531,2.09380
1363538614531,2.07280
1363538674531,2.09807
1363538734531,2.09195
1363538794531,2.09235
1363538854531,2.08706
1363538914531,2.12181
1363538974531,2.09647
1363539034531,2.10271
1363539094531,2.10603
1363539154531,2.08091
1363539214531,2.08175
1363539274531,2.07960
1363539334531,2.11298
1363539394531,2.11804
1363539454531,2.08644
1363539514531,2.09514
1363539574531,2.08908
1363539634543,2.09531
1363539694543,2.11000
1363539754543,2.08556
1363539814543,2.06623
1363539874543,2.08010
1363539934543,2.06760
1363539994543,2.06303
1363540054543,2.08100
1363540114543,2.09488
1363540174543,2.07915
1363540234543,2.08775
1363540294543,2.09316
1363540354543,2.07286
1363540414543,2.06130
1363540474543,2.10742
1363540534543,2.09146
1363540594543,2.09155
1363540654543,2.09505
1363540714543,2.10733
1363540774543,2.10370
1363540834543,2.08769
1363540894543,2.08404
1363540954543,2.10830
1363541014543,2.09622
1363541074543,2.09839
1363541134543,2.10299
1363541194543,2.11661
1363541254543,2.12157
1363541314543,2.11202
1363541374543,2.10014
1363541434543,2.09484
1363541494543,2.11182
1363541554543,2.06126
1363541614543,2.10193
1363541674543,2.11178
1363541734543,2.09644
1363541794543,2.09345
1363541854543,2.10755
1363541914543,2.11899
1363541974543,2.21632
1363542034543,2.09007
1363542094543,2.10984
1363542154543,2.07484
1363542214543,2.10114
1363542274543,2.10896
1363542334543,2.10992
1363542394543,2.08722
1363542454543,2.09933
1363542514543,2.11856
1363542574543,2.10085
1363542634543,2.10113
1363542694543,2.08171
1363542754543,2.09915
1363542814543,2.12863
1363542874543,2.11936
1363542934543,2.12491
1363542994543,2.10541
1363543054543,2.08936
1363543114543,2.11877
1363543174543,2.13970
1363543234555,2.09125
1363543294555,2.12892
1363543354555,2.10955
1363543414555,2.11069
1363543474555,2.13205
1363543534555,2.17057
1363543594555,2.12531
1363543654555,2.12759
1363543714555,2.11476
1363543774555,2.14429
1363543834555,2.10770
1363543894555,2.11542
1363543954555,2.11646
1363544014555,2.13802
1363544074555,2.10532
1363544134555,2.11362
1363544194555,2.15909
1363544254555,2.11915
1363544314555,2.11596
1363544374555,2.09761
1363544434555,2.09403
1363544494555,2.12604
1363544554555,2.07988
1363544614555,2.06621
1363544674555,2.11644
1363544734555,2.12005
1363544794555,2.10087
1363544854555,2.11808
1363544914555,2.08754
1363544974555,2.07659
1363545034555,2.10622
1363545094555,2.09377
1363545154555,2.07804
1363545214555,2.10155
1363545274555,2.10453
1363545334555,2.09096
1363545394555,2.10938
1363545454555,2.08984
1363545514555,2.08070
1363545574555,2.10377
1363545634555,2.10923
1363545694555,2.09680
1363545754555,2.08188
1363545814555,2.08247
1363545874555,2.11027
1363545934555,2.09867
1363545994555,2.11279
1363546054555,2.10219
1363546114555,2.09170
1363546174555,2.15494
1363546234555,2.10527
1363546294555,2.19292
1363546354555,2.08915
1363546414555,2.09773
1363546474555,2.06599
1363546534555,2.10793
1363546594555,2.11145
1363546654555,2.09962
1363546714555,2.10017
1363546774555,2.13096
1363546834567,2.07938
1363546894567,2.08346
1363546954567,2.07824
1363547014567,2.09737
1363547074567,2.08558
1363547134567,2.08099
1363547194567,2.08716
1363547254567,2.08791
1363547314567,2.09424
1363547374567,2.08176
1363547434567,2.13480
1363547494567,2.07355
1363547554567,2.10977
1363547614567,2.10395
1363547674567,2.09186
1363547734567,2.07756
1363547794567,2.09873
1363547854567,2.12132
1363547914567,2.08491
1363547974567,2.07050
1363548034567,2.08038
1363548094567,2.10204
1363548154567,2.09291
1363548214567,2.08047
1363548274567,2.06938
1363548334567,2.07651
1363548394567,2.07298
1363548454567,2.06338
1363548514567,2.07227
1363548574567,2.08672
1363548634567,2.13401
1363548694567,2.08220
1363548754567,2.08491
1363548814567,2.06312
1363548874567,2.09040
1363548934567,2.08447
1363548994567,2.08947
1363549054567,2.09642
1363549114567,2.08155
1363549174567,2.09882
1363549234567,2.08017
1363549294567,2.07531
1363549354567,2.07139
1363549414567,2.07598
1363549474567,2.09824
1363549534567,2.07623
1363549594567,2.08603
1363549654567,2.08122
1363549714567,1.98879
1363549774567,2.06149
1363549834567,2.09141
1363549894567,2.07575
1363549954567,2.09117
1363550014567,2.07530
1363550074567,2.08946
1363550134567,2.09682
1363550194567,2.08654
1363550254567,2.11125
1363550314567,2.08967
1363550374567,2.04703
1363550434579,2.07570
1363550494579,2.07122
1363550554579,2.09889
1363550614579,2.09180
1363550674579,2.06690
1363550734579,2.08310
1363550794579,1.98090
1363550854579,2.01144
1363550914579,2.08830
1363550974579,2.04947
1363551034579,2.07881
1363551094579,2.09051
1363551154579,2.04734
1363551214579,2.08757
1363551274579,2.07349
1363551334579,2.07417
1363551394579,2.08065
1363551454579,2.05397
1363551514579,2.08646
1363551574579,2.06874
1363551634579,2.07580
1363551694579,2.06751
1363551754579,2.05479
1363551814579,2.04660
1363551874579,2.09466
1363551934579,2.05445
1363551994579,2.04282
1363552054579,2.07001
1363552114579,2.03592
1363552174579,2.07401
1363552234579,2.07534
1363552294579,2.07548
1363552354579,2.03679
1363552414579,2.04973
1363552474579,2.06102
1363552534579,2.04773
1363552594579,1.97049
1363552654579,2.06267
1363552714579,2.04672
1363552774579,2.06247
1363552834579,2.05341
1363552894579,2.02608
1363552954579,2.04974
1363553014579,2.07858
1363553074579,2.04655
1363553134579,2.06420
1363553194579,2.05717
1363553254579,2.04984
1363553314579,2.06229
1363553374579,2.06093
1363553434579,2.05716
1363553494579,2.06158
1363553554579,2.03051
1363553614579,2.05926
1363553674579,2.05089
1363553734579,2.04356
1363553794579,2.04776
1363553854579,2.03348
1363553914579,2.03814
1363553974579,2.03163
1363554034592,2.01828
1363554094592,2.04726
1363554154592,2.04826
1363554214592,2.06651
1363554274592,2.04967
1363554334592,2.03960
1363554394592,2.04132
1363554454592,2.05916
1363554514592,2.03918
1363554574592,2.02554
1363554634592,2.05837
1363554694592,2.05601
1363554754592,2.02568
1363554814592,2.05837
1363554874592,2.03313
1363554934592,2.03626
1363554994592,2.03455
1363555054592,2.02858
1363555114592,2.01492
1363555174592,2.03420
1363555234592,2.06057
1363555294592,2.02311
1363555354592,2.04838
1363555414592,2.02879
1363555474592,2.01615
1363555534592,2.03089
1363555594592,2.05568
1363555654592,2.02260
1363555714592,2.03287
1363555774592,2.03622
1363555834592,1.96080
1363555894592,1.97993
1363555954592,2.04408
1363556014592,2.03866
1363556074592,2.02911
1363556134592,2.02684
1363556194592,2.07079
1363556254592,2.02519
1363556314592,2.03693
1363556374592,2.04257
1363556434592,2.03736
1363556494592,2.03402
1363556554592,2.02126
1363556614592,2.03809
1363556674592,2.03609
1363556734592,2.04794
1363556794592,2.04434
1363556854592,2.01817
1363556914592,2.04428
1363556974592,2.02415
1363557034592,2.03010
1363557094592,2.04299
1363557154592,2.03064
1363557214592,2.03653
1363557274592,2.02859
1363557334592,2.02766
1363557394592,2.02804
1363557454592,2.02628
1363557514592,2.04178
1363557574592,2.03870
1363557634604,2.04069
1363557694604,2.04615
1363557754604,2.05807
1363557814604,2.03074
1363557874604,2.03122
1363557934604,2.04881